CZ-6A DEB

Satellite information

Favourite Embed

Satellite Type and Status

DEBRISIN ORBIT

Key statistics

Satellite CZ-6A DEB at a glance.

Uptime

438

Days in orbit

Revolutions

≈ 14.5

Per day

Orbit

LEO

Low Earth Orbit

Inclination

89.1

Latest

Satellite identification and parameters

Extended collection of information and parameters for CZ-6A DEB.

Object identification

Identified? True

Debris? True

Object name: CZ-6A DEB

International designator: 2024-140WV

Object number (NORAD): 61380

Object ID (CCSDS): 61380

Country: PEOPLES REPUBLIC OF CHINA (PRC)

Current information (Y/N): Y

RCS size: SMALL

Orbital parameters

Period: 99.455 minutes

Inclination: 89.1239 deg

SMA: 7110.698 km

Apoapsis: 787.52 km

Periapsis: 677.606 km

RAAN: 306.5657 deg

Eccentricy: 0.00772877

Argument of periapsis: 35.2233 deg

Mean anomaly: 325.4045 deg

Mean motion: 14.47886117 rev/day

Mean motion (dot): 0.00003941 rev/day2

B* drag term: 0.0010209231 1/REarth

Two-line elements (TLE)

Creation date: Oct. 18, 2025, 2:17 a.m.

Reference frame: TEME

Reference center: EARTH

Epoch: Oct. 17, 2025, 11:52 p.m. UTC

TLE line 0: 0 CZ-6A DEB

TLE line 1: 1 61380U 24140WV 25290.99454355 .00003941 00000-0 10209-2 0 9992

TLE line 2: 2 61380 89.1239 306.5657 0077288 35.2233 325.4045 14.47886117 59176

Live tracking on map

Real-time ground track for satellite CZ-6A DEB.

In-orbit conjunctions

A list of the most updated potential collisions computed for object CZ-6A DEB.

Target Orbit TCA Probability of collision Miss distance Type
TITAN 3C TRANSTAGE DEB LEO 2025-05-08 22:10:21 0.0001605192 306.0 (m) DEBRIS
CZ-6A DEB LEO 2025-03-02 00:29:13 0.0001093301 705.0 (m) DEBRIS
ADEOS SSO 2025-03-01 17:48:46 0.0006217393 157.0 (m) PAYLOAD
FENGYUN 1C DEB SSO 2025-02-06 09:26:52 0.0001082765 579.0 (m) DEBRIS
CZ-6A DEB SSO 2025-01-22 05:47:42 0.0001645167 744.0 (m) DEBRIS

Associated space launch

18 Low Earth Orbit communication satellites with Ku, Q and V band payloads for the G60 constellation operated by Shanghai Spacecom Satellite Technology (SSST) with funding backed by the Shanghai local government. Initial constellation will consist of 1296 satellites by 2027 with long term plans to expand it to 12000 satellites.

CZ-6A DEB was lifted into orbit during the mission ‘Long March 6A | G60 Polar Group 01’, on board a Long March 6A space rocket.

The launch took place on Aug. 6, 2024, 6:42 a.m. from Launch Complex 9A.

For more information about the launch, click the button.

Launch to space Long March 6A | G60 Polar Group 01
Long March 6A | G60 Polar Group 01

Agency: N/A

Status: Launch Successful

Launch date: Aug. 6, 2024, 6:42 a.m. UTC

Rocket: Long March 6A

Launch pad: Launch Complex 9A

Location: Taiyuan Satellite Launch Center, People's Republic of China

...

Latest news about this satellite

News about space launch
Brightness of first Chinese broadband constellation satellites alarms astronomers

The first satellites of a Chinese broadband constellation are significantly brighter than those of Western systems, posing a new challenge for astronomers.

News about space launch
Chinese rocket stage breaks up into cloud of more than 700 pieces of space debris

HELSINKI — A Chinese Long March 6A rocket’s upper stage has fragmented into a cloud of over 700 pieces of space debris, adding to concerns about long-term orbital safety. China […]

News about space launch
China's Thousand Sails Megaconstellation Kicks Off with Dangerous Debris Field

China's Thousand Sails Megaconstellation Kicks Off with Dangerous Debris Field


Newsletter sign-up

Weekly statistics, charts and insights to help you stay on top of the space industry.